Tracking 19570 objects as of 22-Feb-2019
HD Live streaming from Space Station
objects crossing your sky now

COSMOS 1912

Track COSMOS 1912 now!
10-day predictions
COSMOS 1912 is classified as:


NORAD ID: 18791
Int'l Code: 1988-002D
Perigee: 1,400.2 km
Apogee: 1,418.8 km
Inclination: 82.6 °
Period: 113.8 minutes
Semi major axis: 7780 km
RCS: 1.1982 m2 (large)
Launch date: January 15, 1988
Source: Commonwealth of Independent States (former USSR) (CIS)
Launch site: PLESETSK MISSILE AND SPACE COMPLEX (PKMTR)
aabbcc
Your satellite tracking list
Your tracking list is empty




NASA's NSSDC Master Catalog

Two Line Element Set (TLE):
1 18791U 88002D   19052.78390962 +.00000028 +00000-0 +91981-4 0  9997
2 18791 082.6115 145.2152 0011952 074.7683 041.7832 12.64994052435991
Source of the keplerian elements: AFSPC